| time (UTC) | temp F | wind direction | speed MPH | gust MPH | rain 1hr in | rain 24hr in | rain mn in | humidity % | barometer mb |
| 20260504130516 | 70 | 0.0 | 0.0 | 0.00 | 0.00 | 0.00 | 71 | 1017.4 | |
| 20260504110522 | 62 | 0.0 | 0.0 | 0.00 | 0.00 | 0.00 | 86 | 1016.7 | |
| 20260504100524 | 63 | 0.0 | 0.0 | 0.00 | 0.00 | 0.00 | 86 | 1016.3 | |
| 20260504081528 | 64 | 0.0 | 0.0 | 0.00 | 0.00 | 0.00 | 81 | 1016.2 | |
| 20260504081514 | 65 | 0.0 | 0.0 | 0.00 | 0.00 | 0.00 | 81 | 1016.3 | |
| 20260504080545 | 65 | 0.0 | 0.0 | 0.00 | 0.00 | 0.00 | 81 | 1016.4 | |
| 20260504050532 | 69 | 0.0 | 0.0 | 0.00 | 0.00 | 0.00 | 77 | 1016.9 | |
| 20260504045102 | 69 | 0.0 | 0.0 | 0.00 | 0.00 | 0.00 | 76 | 1017.5 | |
| 20260504044550 | 69 | 0.0 | 0.0 | 0.00 | 0.00 | 0.00 | 76 | 1017.5 | |
| 20260504044537 | 69 | 0.0 | 0.0 | 0.00 | 0.00 | 0.00 | 76 | 1017.6 | |
| 20260504043521 | 69 | 0.0 | 0.0 | 0.00 | 0.00 | 0.00 | 76 | 1017.7 | |
| 20260504043036 | 69 | 0.0 | 0.0 | 0.00 | 0.00 | 0.00 | 76 | 1017.8 | |
| 20260504043007 | 69 | 0.0 | 0.0 | 0.00 | 0.00 | 0.00 | 76 | 1017.8 | |
| 20260504042020 | 70 | 0.0 | 0.0 | 0.00 | 0.00 | 0.00 | 75 | 1017.8 | |
| 20260504041607 | 69 | 0.0 | 0.0 | 0.00 | 0.00 | 0.00 | 75 | 1017.8 | |
| 20260504041514 | 70 | 0.0 | 0.0 | 0.00 | 0.00 | 0.00 | 75 | 1017.9 | |
| 20260504040523 | 70 | 0.0 | 0.0 | 0.00 | 0.00 | 0.00 | 75 | 1018.0 | |
| 20260504040038 | 70 | 0.0 | 0.0 | 0.00 | 0.00 | 0.00 | 75 | 1018.0 | |
| 20260504035019 | 70 | 0.0 | 0.0 | 0.00 | 0.00 | 0.00 | 74 | 1017.9 | |
| 20260504034552 | 70 | 0.0 | 0.0 | 0.00 | 0.00 | 0.00 | 74 | 1017.9 | |
| 20260504034514 | 70 | 0.0 | 0.0 | 0.00 | 0.00 | 0.00 | 74 | 1018.0 | |
| 20260504033546 | 70 | 0.0 | 0.0 | 0.00 | 0.00 | 0.00 | 74 | 1018.0 | |
| 20260504033106 | 70 | 0.0 | 0.0 | 0.00 | 0.00 | 0.00 | 74 | 1017.8 | |
| 20260504033019 | 70 | 0.0 | 0.0 | 0.00 | 0.00 | 0.00 | 74 | 1017.9 | |
| 20260504032021 | 71 | 0.0 | 0.0 | 0.00 | 0.00 | 0.00 | 73 | 1017.7 | |
| 20260504031536 | 71 | 0.0 | 0.0 | 0.00 | 0.00 | 0.00 | 73 | 1017.7 | |
| 20260504031509 | 70 | 0.0 | 0.0 | 0.00 | 0.00 | 0.00 | 73 | 1017.7 | |
| 20260504030543 | 71 | 0.0 | 0.0 | 0.00 | 0.00 | 0.00 | 73 | 1017.6 | |
| 20260504030034 | 71 | 0.0 | 0.0 | 0.00 | 0.00 | 0.00 | 73 | 1017.6 | |
| 20260504030012 | 71 | 0.0 | 0.0 | 0.00 | 0.00 | 0.00 | 72 | 1017.5 | |
| 20260504024525 | 71 | 0.0 | 0.0 | 0.00 | 0.00 | 0.00 | 72 | 1017.7 | |
| 20260504024502 | 71 | 0.0 | 0.0 | 0.00 | 0.00 | 0.00 | 72 | 1017.6 | |
| 20260504023534 | 72 | 0.0 | 0.0 | 0.00 | 0.00 | 0.00 | 71 | 1017.7 | |
| 20260504023104 | 71 | 0.0 | 0.0 | 0.00 | 0.00 | 0.00 | 71 | 1017.5 | |
| 20260504023027 | 72 | 0.0 | 0.0 | 0.00 | 0.00 | 0.00 | 71 | 1017.6 | |
| 20260504022034 | 72 | 0.0 | 0.0 | 0.00 | 0.00 | 0.00 | 70 | 1017.5 | |
| 20260504021550 | 72 | 0.0 | 0.0 | 0.00 | 0.00 | 0.00 | 70 | 1017.5 | |
| 20260504021529 | 72 | 0.0 | 0.0 | 0.00 | 0.00 | 0.00 | 70 | 1017.6 | |
| 20260504020534 | 72 | 0.0 | 0.0 | 0.00 | 0.00 | 0.00 | 70 | 1017.2 | |
| 20260504020029 | 73 | 0.0 | 0.0 | 0.00 | 0.00 | 0.00 | 69 | 1017.2 | |
| 20260504020000 | 72 | 0.0 | 0.0 | 0.00 | 0.00 | 0.00 | 69 | 1017.1 | |
| 20260504015024 | 73 | 0.0 | 0.0 | 0.00 | 0.00 | 0.00 | 69 | 1017.1 | |
| 20260504014550 | 73 | 0.0 | 0.0 | 0.00 | 0.00 | 0.00 | 69 | 1017.0 | |
| 20260504014519 | 73 | 0.0 | 0.0 | 0.00 | 0.00 | 0.00 | 69 | 1017.1 | |
| 20260504013530 | 74 | 0.0 | 0.0 | 0.00 | 0.00 | 0.00 | 68 | 1017.0 | |
| 20260504013120 | 73 | 0.0 | 0.0 | 0.00 | 0.00 | 0.00 | 67 | 1016.7 | |
| 20260504013018 | 74 | 0.0 | 0.0 | 0.00 | 0.00 | 0.00 | 67 | 1016.8 | |
| 20260504012028 | 74 | 0.0 | 0.0 | 0.00 | 0.00 | 0.00 | 67 | 1016.7 | |
| 20260504011552 | 74 | 0.0 | 0.0 | 0.00 | 0.00 | 0.00 | 66 | 1016.5 | |
| 20260504011522 | 75 | 0.0 | 0.0 | 0.00 | 0.00 | 0.00 | 66 | 1016.6 | |
| 20260504010533 | 75 | 0.0 | 0.0 | 0.00 | 0.00 | 0.00 | 66 | 1016.5 | |
| 20260504010028 | 75 | 0.0 | 0.0 | 0.00 | 0.00 | 0.00 | 65 | 1016.5 | |
| 20260504010012 | 75 | 0.0 | 0.0 | 0.00 | 0.00 | 0.00 | 65 | 1016.4 | |
| 20260504005028 | 76 | 0.0 | 0.0 | 0.00 | 0.00 | 0.00 | 64 | 1016.3 | |
| 20260504004552 | 76 | 0.0 | 0.0 | 0.00 | 0.00 | 0.00 | 63 | 1016.1 | |
| 20260504004521 | 76 | 0.0 | 0.0 | 0.00 | 0.00 | 0.00 | 64 | 1016.2 | |
| 20260504003548 | 77 | 0.0 | 0.0 | 0.00 | 0.00 | 0.00 | 61 | 1016.2 | |
| 20260504003101 | 76 | 0.0 | 0.0 | 0.00 | 0.00 | 0.00 | 61 | 1016.1 | |
| 20260504003017 | 77 | 0.0 | 0.0 | 0.00 | 0.00 | 0.00 | 60 | 1016.2 | |
| 20260504002027 | 77 | 0.0 | 0.0 | 0.00 | 0.00 | 0.00 | 58 | 1015.9 | |
| 20260504001632 | 77 | 0.0 | 0.0 | 0.00 | 0.00 | 0.00 | 58 | 1015.7 | |
| 20260504000526 | 78 | 0.0 | 0.0 | 0.00 | 0.00 | 0.00 | 56 | 1015.7 | |
| 20260504000130 | 78 | 0.0 | 0.0 | 0.00 | 0.00 | 0.00 | 56 | 1015.6 | |
| 20260504000020 | 79 | 0.0 | 0.0 | 0.00 | 0.00 | 0.00 | 56 | 1015.7 | |
| 20260503235022 | 79 | 0.0 | 0.0 | 0.00 | 0.00 | 0.00 | 55 | 1015.6 | |
| 20260503234538 | 80 | 0.0 | 0.0 | 0.00 | 0.00 | 0.00 | 54 | 1015.6 | |
| 20260503234505 | 79 | 0.0 | 0.0 | 0.00 | 0.00 | 0.00 | 54 | 1015.5 | |
| 20260503233526 | 80 | 0.0 | 0.0 | 0.00 | 0.00 | 0.00 | 54 | 1015.7 | |
| 20260503233056 | 80 | 0.0 | 0.0 | 0.00 | 0.00 | 0.00 | 54 | 1015.5 | |
| 20260503233021 | 80 | 0.0 | 0.0 | 0.00 | 0.00 | 0.00 | 54 | 1015.6 | |
| 20260503232051 | 81 | 0.0 | 0.0 | 0.00 | 0.00 | 0.00 | 52 | 1015.4 | |
| 20260503231606 | 80 | 0.0 | 0.0 | 0.00 | 0.00 | 0.00 | 53 | 1015.3 | |
| 20260503231525 | 81 | 0.0 | 0.0 | 0.00 | 0.00 | 0.00 | 53 | 1015.4 | |
| 20260503230537 | 81 | 0.0 | 0.0 | 0.00 | 0.00 | 0.00 | 52 | 1015.4 | |
| 20260503230050 | 81 | 0.0 | 0.0 | 0.00 | 0.00 | 0.00 | 52 | 1015.4 | |
| 20260503230009 | 81 | 0.0 | 0.0 | 0.00 | 0.00 | 0.00 | 51 | 1015.4 | |
| 20260503225028 | 81 | 0.0 | 0.0 | 0.00 | 0.00 | 0.00 | 51 | 1015.3 | |
| 20260503224546 | 81 | 0.0 | 0.0 | 0.00 | 0.00 | 0.00 | 50 | 1015.3 | |
| 20260503224523 | 81 | 0.0 | 0.0 | 0.00 | 0.00 | 0.00 | 50 | 1015.3 | |
| 20260503223533 | 81 | 0.0 | 0.0 | 0.00 | 0.00 | 0.00 | 51 | 1015.4 | |
| 20260503223105 | 81 | 0.0 | 0.0 | 0.00 | 0.00 | 0.00 | 50 | 1015.3 | |
| 20260503223022 | 81 | 0.0 | 0.0 | 0.00 | 0.00 | 0.00 | 50 | 1015.4 | |
| 20260503222046 | 82 | 0.0 | 0.0 | 0.00 | 0.00 | 0.00 | 48 | 1015.4 | |
| 20260503221521 | 82 | 0.0 | 0.0 | 0.00 | 0.00 | 0.00 | 49 | 1015.4 | |
| 20260503221510 | 82 | 0.0 | 0.0 | 0.00 | 0.00 | 0.00 | 49 | 1015.3 | |
| 20260503220516 | 82 | 0.0 | 0.0 | 0.00 | 0.00 | 0.00 | 51 | 1015.4 | |
| 20260503220109 | 82 | 0.0 | 0.0 | 0.00 | 0.00 | 0.00 | 48 | 1015.3 | |
| 20260503220025 | 82 | 0.0 | 0.0 | 0.00 | 0.00 | 0.00 | 48 | 1015.3 | |
| 20260503215110 | 82 | 0.0 | 0.0 | 0.00 | 0.00 | 0.00 | 51 | 1015.3 | |
| 20260503214541 | 81 | 0.0 | 0.0 | 0.00 | 0.00 | 0.00 | 52 | 1015.2 | |
| 20260503214518 | 81 | 0.0 | 0.0 | 0.00 | 0.00 | 0.00 | 52 | 1015.3 | |
| 20260503213525 | 81 | 0.0 | 0.0 | 0.00 | 0.00 | 0.00 | 52 | 1015.4 | |
| 20260503213108 | 80 | 0.0 | 0.0 | 0.00 | 0.00 | 0.00 | 53 | 1015.4 | |
| 20260503213013 | 80 | 0.0 | 0.0 | 0.00 | 0.00 | 0.00 | 53 | 1015.4 | |
| 20260503212022 | 80 | 0.0 | 0.0 | 0.00 | 0.00 | 0.00 | 51 | 1015.3 | |
| 20260503211554 | 80 | 0.0 | 0.0 | 0.00 | 0.00 | 0.00 | 52 | 1015.4 | |
| 20260503211517 | 80 | 0.0 | 0.0 | 0.00 | 0.00 | 0.00 | 52 | 1015.5 | |
| 20260503210528 | 80 | 0.0 | 0.0 | 0.00 | 0.00 | 0.00 | 52 | 1015.4 | |
| 20260503210036 | 79 | 0.0 | 0.0 | 0.00 | 0.00 | 0.00 | 53 | 1015.4 | |
| 20260503210022 | 80 | 0.0 | 0.0 | 0.00 | 0.00 | 0.00 | 53 | 1015.5 | |
| 20260503205031 | 79 | 0.0 | 0.0 | 0.00 | 0.00 | 0.00 | 54 | 1015.5 | |
| 20260503204554 | 78 | 0.0 | 0.0 | 0.00 | 0.00 | 0.00 | 56 | 1015.5 | |
| 20260503203516 | 78 | 0.0 | 0.0 | 0.00 | 0.00 | 0.00 | 57 | 1015.6 | |
| 20260503203046 | 78 | 0.0 | 0.0 | 0.00 | 0.00 | 0.00 | 57 | 1015.6 | |
| 20260503203030 | 78 | 0.0 | 0.0 | 0.00 | 0.00 | 0.00 | 57 | 1015.6 | |
| 20260503202040 | 78 | 0.0 | 0.0 | 0.00 | 0.00 | 0.00 | 56 | 1015.8 | |
| 20260503201619 | 78 | 0.0 | 0.0 | 0.00 | 0.00 | 0.00 | 57 | 1015.8 | |
| 20260503201536 | 78 | 0.0 | 0.0 | 0.00 | 0.00 | 0.00 | 56 | 1015.9 | |
| 20260503200519 | 78 | 0.0 | 0.0 | 0.00 | 0.00 | 0.00 | 57 | 1016.1 | |
| 20260503200100 | 77 | 0.0 | 0.0 | 0.00 | 0.00 | 0.00 | 58 | 1016.0 | |
| 20260503200033 | 78 | 0.0 | 0.0 | 0.00 | 0.00 | 0.00 | 60 | 1016.0 | |
| 20260503195031 | 78 | 0.0 | 0.0 | 0.00 | 0.00 | 0.00 | 59 | 1016.2 | |
| 20260503194613 | 77 | 0.0 | 0.0 | 0.00 | 0.00 | 0.00 | 60 | 1016.3 | |
| 20260503194525 | 78 | 0.0 | 0.0 | 0.00 | 0.00 | 0.00 | 59 | 1016.4 | |
| 20260503193535 | 78 | 0.0 | 0.0 | 0.00 | 0.00 | 0.00 | 59 | 1016.4 | |
| 20260503193110 | 77 | 0.0 | 0.0 | 0.00 | 0.00 | 0.00 | 59 | 1016.4 | |
| 20260503193027 | 78 | 0.0 | 0.0 | 0.00 | 0.00 | 0.00 | 59 | 1016.5 | |
| 20260503192038 | 78 | 0.0 | 0.0 | 0.00 | 0.00 | 0.00 | 59 | 1016.8 | |
| 20260503191529 | 77 | 0.0 | 0.0 | 0.00 | 0.00 | 0.00 | 58 | 1016.9 | |
| 20260503191511 | 77 | 0.0 | 0.0 | 0.00 | 0.00 | 0.00 | 58 | 1016.8 | |
| 20260503190539 | 77 | 0.0 | 0.0 | 0.00 | 0.00 | 0.00 | 61 | 1017.2 | |
| 20260503190048 | 77 | 0.0 | 0.0 | 0.00 | 0.00 | 0.00 | 62 | 1017.2 | |
| 20260503190014 | 77 | 0.0 | 0.0 | 0.00 | 0.00 | 0.00 | 62 | 1017.1 | |
| 20260503185025 | 77 | 0.0 | 0.0 | 0.00 | 0.00 | 0.00 | 61 | 1017.4 | |
| 20260503184542 | 76 | 0.0 | 0.0 | 0.00 | 0.00 | 0.00 | 61 | 1017.3 | |
| 20260503184517 | 77 | 0.0 | 0.0 | 0.00 | 0.00 | 0.00 | 60 | 1017.4 | |
| 20260503183526 | 76 | 0.0 | 0.0 | 0.00 | 0.00 | 0.00 | 62 | 1017.5 | |
| 20260503183117 | 76 | 0.0 | 0.0 | 0.00 | 0.00 | 0.00 | 61 | 1017.5 | |
| 20260503183037 | 76 | 0.0 | 0.0 | 0.00 | 0.00 | 0.00 | 61 | 1017.6 | |
| 20260503182020 | 76 | 0.0 | 0.0 | 0.00 | 0.00 | 0.00 | 62 | 1017.7 | |
| 20260503181618 | 76 | 0.0 | 0.0 | 0.00 | 0.00 | 0.00 | 60 | 1017.6 | |
| 20260503181537 | 76 | 0.0 | 0.0 | 0.00 | 0.00 | 0.00 | 61 | 1017.7 | |
| 20260503180519 | 76 | 0.0 | 0.0 | 0.00 | 0.00 | 0.00 | 63 | 1017.8 | |
| 20260503180017 | 75 | 0.0 | 0.0 | 0.00 | 0.00 | 0.00 | 65 | 1017.8 | |
| 20260503175030 | 75 | 0.0 | 0.0 | 0.00 | 0.00 | 0.00 | 65 | 1018.0 | |
| 20260503174549 | 74 | 0.0 | 0.0 | 0.00 | 0.00 | 0.00 | 65 | 1017.9 | |
| 20260503174522 | 75 | 0.0 | 0.0 | 0.00 | 0.00 | 0.00 | 65 | 1018.0 | |
| 20260503173534 | 75 | 0.0 | 0.0 | 0.00 | 0.00 | 0.00 | 66 | 1018.1 | |
| 20260503173025 | 75 | 0.0 | 0.0 | 0.00 | 0.00 | 0.00 | 66 | 1018.2 | |
| 20260503173019 | 74 | 0.0 | 0.0 | 0.00 | 0.00 | 0.00 | 66 | 1018.1 | |
| 20260503172035 | 74 | 0.0 | 0.0 | 0.00 | 0.00 | 0.00 | 66 | 1018.3 | |
| 20260503171555 | 74 | 0.0 | 0.0 | 0.00 | 0.00 | 0.00 | 67 | 1018.2 | |
| 20260503171525 | 74 | 0.0 | 0.0 | 0.00 | 0.00 | 0.00 | 67 | 1018.3 | |
| 20260503170517 | 74 | 0.0 | 0.0 | 0.00 | 0.00 | 0.00 | 66 | 1018.3 | |
| 20260503160200 | 71 | 0.0 | 0.0 | 0.00 | 0.00 | 0.00 | 70 | 1018.5 | |
| 20260503160127 | 72 | 0.0 | 0.0 | 0.00 | 0.00 | 0.00 | 69 | 1018.7 | |
| 20260503150533 | 68 | 0.0 | 0.0 | 0.00 | 0.00 | 0.00 | 77 | 1019.0 | |
| 20260503140103 | 66 | 0.0 | 0.0 | 0.00 | 0.00 | 0.00 | 81 | 1018.2 |